Regional Weather Roundup
Issued by NWS

Home | Current Version | Previous Version | Text Only | Print | Product List | Glossary Off
Versions: 1 2 3 4 5 6 7 8 9 10 11 12 13 14 15 16 17 18 19 20 21 22 23 24 25 26 27 28 29 30 31 32 33 34 35 36 37 38 39 40 41 42 43 44 45 46 47 48 49 50

792
ASUS44 KJAN 201003
RWRMS

MISSISSIPPI HOURLY WEATHER ROUNDUP
NATIONAL WEATHER SERVICE JACKSON MS
500 AM CDT MON OCT 20 2014

NOTE: "FAIR: INDICATES FEW OR NO CLOUDS BELOW 12,000 FEET WITH NO
SIGNIFICANT WEATHER AND/OR OBSTRUCTIONS TO VISIBILITY.

MSZ001>002-007>008-010>013-018>021-025>028-034>036-201100-
NORTHWEST MISSISSIPPI

CITY           SKY/WX    TMP DP  RH WIND       PRES   REMARKS
CLARKSDALE     FAIR      46  46 100 CALM      30.08S
CLEVELAND      FOG       48  48 100 CALM      30.06F VSB 1
GREENWOOD      CLEAR     47  45  93 NE3       30.07F
GREENVILLE     FOG       47  46  97 CALM      30.06F VSB 3/4
GRENADA          N/A    N/A N/A N/A MISG        N/A
OLIVE BRANCH   CLEAR     45  45 100 CALM      30.07S
OXFORD         FAIR      41  41 100 CALM      30.09S
TUNICA         FOG       43  43 100 CALM      30.08S VSB<1/4
$$

MSZ003>006-009-014>017-022>024-029>033-037>039-201100-
NORTHEAST MISSISSIPPI

CITY           SKY/WX    TMP DP  RH WIND       PRES   REMARKS
COLUMBUS AFB   CLEAR     43  43 100 CALM      30.08S
CORINTH          N/A     41  41 100 CALM        N/A
GOLDN TRIANGLE CLOUDY    43  37  81 NW3       30.08R
TUPELO         CLEAR     46  43  89 CALM      30.08R
$$

MSZ040-058-201100-
CENTRAL MISSISSIPPI

CITY           SKY/WX    TMP DP  RH WIND       PRES   REMARKS
JACKSON INTL   CLEAR     46  45  96 CALM      30.07S
JACKSON HAWKNS CLEAR     48  45  89 CALM      30.07S
MERIDIAN KEY   CLEAR     43  41  93 CALM      30.07S
MERIDIAN NAS   CLEAR     45  42  89 CALM      30.08R
RAYMOND        FAIR      43  39  87 CALM      30.07S
VICKSBURG      CLEAR     42  41  96 CALM      30.08R
$$

MSZ059>079-201100-
SOUTH MISSISSIPPI

CITY           SKY/WX    TMP DP  RH WIND       PRES   REMARKS
BROOKHAVEN     FAIR      45  45 100 CALM      30.08S
COLUMBIA         N/A    N/A N/A N/A MISG        N/A
HATTIESBURG    CLEAR     46  44  93 CALM      30.07S
MCCOMB         CLEAR     49  45  86 NW3       30.05F
NATCHEZ        CLEAR     46  43  87 CALM      30.06S
PINE BELT      CLEAR     45  39  81 CALM      30.07S
$$

MSZ080>082-201100-
COASTAL MISSISSIPPI

CITY           SKY/WX    TMP DP  RH WIND       PRES   REMARKS
BILOXI         CLEAR     54  49  86 N2        30.03F
PASCAGOULA     CLEAR     45  44  97 CALM      30.04S
GULFPORT       CLEAR     53  49  86 CALM      30.03F
$$



USA.gov is the U.S. government's official web portal to all federal, state and local government web resources and services.